EW9345 Kearny NJ US current weather conditions

sailwx.info

Wind from 304 at 5 knots gusting 10

Air temperature 4.4° C
Dewpoint -2.9° C

Last reported at 2020-Jan-28 21:03 UTC.
Time now 2020-Jan-28 22:05 UTC

Location: N 40°47' W 074°09'.
View on Google Maps.

See reports from other nearby stations

  
Tides and Currents Weather Stations Pressure Air Temp Water Temp Dewpoint Dewpoint Depression Visibility Wind Speed Wind Dir Waves Ship Positions
date/time (UTC)wind fromknots sea level pressurealtimeterstation pressurevisibilityair tempwater tempwave heightnotes
2020-Jan-28 21:03 304 5 gusting 10 4.4
2020-Jan-28 20:58 305 4 gusting 7 4.4
2020-Jan-28 20:53 303 5 gusting 9 4.4
2020-Jan-28 20:48 304 4 gusting 9 4.4
2020-Jan-28 20:43 302 4 gusting 7 5.0
2020-Jan-28 20:38 313 4 gusting 8 4.4
2020-Jan-28 20:33 303 4 gusting 11 5.0
2020-Jan-28 20:28 306 4 gusting 11 4.4
2020-Jan-28 20:23 315 5 gusting 13 4.4
2020-Jan-28 20:18 293 5 gusting 13 4.4
2020-Jan-28 20:13 293 5 gusting 12 4.4
2020-Jan-28 20:08 294 6 gusting 12 4.4
2020-Jan-28 20:03 268 5 gusting 10 4.4
2020-Jan-28 19:58 304 5 gusting 9 4.4
2020-Jan-28 19:53 308 6 gusting 13 4.4
2020-Jan-28 19:48 312 6 gusting 13 4.4
2020-Jan-28 19:43 326 6 gusting 13 4.4
2020-Jan-28 19:38 281 6 gusting 11 5.0
2020-Jan-28 19:33 327 6 gusting 15 4.4
2020-Jan-28 19:28 287 6 gusting 15 4.4
2020-Jan-28 19:23 273 6 gusting 13 5.0
2020-Jan-28 19:18 300 6 gusting 13 5.0
2020-Jan-28 19:12 288 6 gusting 13 5.0
2020-Jan-28 19:07 297 6 gusting 11 5.0
2020-Jan-28 19:02 314 5 gusting 9 5.0
2020-Jan-28 18:58 299 6 gusting 13 5.0
2020-Jan-28 18:52 330 6 gusting 13 5.0
2020-Jan-28 18:47 298 6 gusting 15 5.0
2020-Jan-28 18:42 308 6 gusting 15 5.0
2020-Jan-28 18:37 309 6 gusting 15 5.0
2020-Jan-28 18:32 291 6 gusting 15 5.0
2020-Jan-28 18:28 252 8 gusting 15 5.0
2020-Jan-28 18:22 264 7 gusting 19 5.0
2020-Jan-28 18:18 297 7 gusting 19 5.0
2020-Jan-28 18:13 295 6 gusting 15 5.0
2020-Jan-28 18:08 278 5 gusting 11 5.0
2020-Jan-28 18:02 265 5 gusting 12 5.0
2020-Jan-28 17:57 311 6 gusting 13 5.6
2020-Jan-28 17:52 287 6 gusting 13 5.6
2020-Jan-28 17:47 299 6 gusting 11 5.6
2020-Jan-28 17:42 280 6 gusting 12 5.6
2020-Jan-28 17:37 283 6 gusting 13 5.6
2020-Jan-28 17:32 292 6 gusting 13 5.0
2020-Jan-28 17:27 297 7 gusting 13 5.0
2020-Jan-28 17:22 288 6 gusting 12 5.0
2020-Jan-28 17:17 297 6 gusting 13 5.6
2020-Jan-28 17:12 293 6 gusting 13 5.6
2020-Jan-28 17:07 305 5 gusting 13 5.6
2020-Jan-28 17:02 303 5 gusting 9 5.6
2020-Jan-28 16:57 271 6 gusting 11 5.6
2020-Jan-28 16:52 315 6 gusting 11 5.6
2020-Jan-28 16:47 282 6 gusting 10 5.6
2020-Jan-28 16:42 330 5 gusting 10 5.6
2020-Jan-28 16:37 309 6 gusting 10 5.6
2020-Jan-28 16:33 283 6 gusting 10 5.6
2020-Jan-28 16:27 278 5 gusting 10 5.6
2020-Jan-28 16:22 311 3 gusting 9 5.6
2020-Jan-28 16:17 286 5 gusting 10 5.0
2020-Jan-28 16:12 308 6 gusting 10 5.0
2020-Jan-28 16:07 321 6 gusting 13 5.0
2020-Jan-28 16:02 342 6 gusting 13 5.0
2020-Jan-28 15:57 275 5 gusting 11 5.0
2020-Jan-28 15:52 283 6 gusting 11 4.4
2020-Jan-28 15:47 304 6 gusting 10 4.4
2020-Jan-28 15:42 305 5 gusting 10 4.4
2020-Jan-28 15:37 285 5 gusting 12 4.4
2020-Jan-28 15:32 300 6 gusting 12 4.4
2020-Jan-28 15:27 254 6 gusting 9 4.4
2020-Jan-28 15:22 306 6 gusting 12 4.4
2020-Jan-28 15:17 259 6 gusting 12 4.4
2020-Jan-28 15:12 279 5 gusting 10 4.4
2020-Jan-28 15:07 278 5 gusting 10 4.4
2020-Jan-28 15:02 314 6 gusting 9 3.9
2020-Jan-28 14:57 269 5 gusting 9 3.9
2020-Jan-28 14:52 276 3 gusting 9 3.9
2020-Jan-28 14:47 316 3 gusting 7 3.9
2020-Jan-28 14:42 307 3 gusting 8 3.9
2020-Jan-28 14:37 290 3 gusting 8 3.9
2020-Jan-28 14:32 307 3 gusting 10 3.9
2020-Jan-28 14:27 285 4 gusting 10 3.9
2020-Jan-28 14:22 289 4 gusting 7 3.9
2020-Jan-28 14:17 307 4 gusting 7 3.3
2020-Jan-28 14:12 303 4 gusting 7 3.3
2020-Jan-28 14:07 329 4 gusting 11 3.3
2020-Jan-28 14:02 308 4 gusting 11 3.3
2020-Jan-28 13:57 285 4 gusting 8 3.3
2020-Jan-28 13:52 281 3 gusting 8 3.3
2020-Jan-28 13:47 297 4 gusting 10 3.3
2020-Jan-28 13:42 286 4 gusting 10 3.3
2020-Jan-28 13:37 288 3 gusting 6 3.3
2020-Jan-28 13:32 301 3 gusting 7 3.3
2020-Jan-28 13:27 309 3 gusting 7 3.3
2020-Jan-28 13:22 274 4 gusting 9 3.3
2020-Jan-28 13:17 315 5 gusting 10 3.3
2020-Jan-28 13:12 304 4 gusting 10 3.3
2020-Jan-28 13:07 294 3 gusting 7 3.3
2020-Jan-28 13:02
2020-Jan-28 12:56
2020-Jan-28 12:50
2020-Jan-28 12:44
2020-Jan-28 12:39
2020-Jan-28 12:34
2020-Jan-28 12:28
2020-Jan-28 12:23
2020-Jan-28 12:17
2020-Jan-28 12:12
2020-Jan-28 12:06
2020-Jan-28 12:01
2020-Jan-28 11:55
2020-Jan-28 11:50
2020-Jan-28 11:45
2020-Jan-28 11:40
2020-Jan-28 11:34
2020-Jan-28 11:28
2020-Jan-28 11:23
2020-Jan-28 11:18
2020-Jan-28 11:12
2020-Jan-28 11:07
2020-Jan-28 11:01
2020-Jan-28 10:56
2020-Jan-28 10:51
2020-Jan-28 10:46
2020-Jan-28 10:40
2020-Jan-28 10:35
2020-Jan-28 10:30
2020-Jan-28 10:25
2020-Jan-28 10:19
2020-Jan-28 10:13
2020-Jan-28 10:08
2020-Jan-28 10:03
2020-Jan-28 09:58
2020-Jan-28 09:52
2020-Jan-28 09:47
2020-Jan-28 09:42
2020-Jan-28 09:36
2020-Jan-28 09:31
2020-Jan-28 09:25
2020-Jan-28 09:19
2020-Jan-28 09:14
2020-Jan-28 09:08
2020-Jan-28 09:03
2020-Jan-28 08:58
2020-Jan-28 08:52
2020-Jan-28 08:47
2020-Jan-28 08:42
2020-Jan-28 08:36
2020-Jan-28 08:30
2020-Jan-28 08:25
2020-Jan-28 08:20
2020-Jan-28 08:15
2020-Jan-28 08:09
2020-Jan-28 08:04
2020-Jan-28 07:59
2020-Jan-28 07:54 286 3 gusting 6 2.8
2020-Jan-28 07:48 286 3 gusting 8 2.8
2020-Jan-28 07:43 286 3 gusting 8 2.8
2020-Jan-28 07:38 286 3 gusting 8 2.8
2020-Jan-28 07:32 308 3 gusting 8 3.3
2020-Jan-28 07:27 302 3 gusting 6 3.3
2020-Jan-28 07:22 270 2 gusting 5 3.3
2020-Jan-28 07:17 295 3 gusting 6 3.9
2020-Jan-28 07:12 290 3 gusting 8 3.9
2020-Jan-28 07:07 276 4 gusting 8 3.9
2020-Jan-28 07:02 292 4 gusting 9 3.9
2020-Jan-28 06:57 265 4 gusting 9 3.9
2020-Jan-28 06:52 288 3 gusting 8 3.9
2020-Jan-28 06:47 274 2 gusting 8 3.9
2020-Jan-28 06:42 298 3 gusting 6 3.9
2020-Jan-28 06:37 290 4 gusting 8 3.9
2020-Jan-28 06:32 293 3 gusting 8 3.9
2020-Jan-28 06:27 291 3 gusting 7 3.9
2020-Jan-28 06:22 290 3 gusting 7 3.9
2020-Jan-28 06:17 285 2 gusting 6 3.9
2020-Jan-28 06:12 256 3 gusting 6 3.9
2020-Jan-28 06:07 271 3 gusting 6 3.9
2020-Jan-28 06:02 304 2 gusting 6 3.9
2020-Jan-28 05:57 290 3 gusting 7 3.9
2020-Jan-28 05:52 302 4 gusting 8 3.9
2020-Jan-28 05:47 285 4 gusting 8 3.9
2020-Jan-28 05:42 267 4 gusting 7 3.9
2020-Jan-28 05:37 314 4 gusting 7 3.9
2020-Jan-28 05:32 275 3 gusting 7 3.9
2020-Jan-28 05:27 320 3 gusting 6 3.9
2020-Jan-28 05:22 293 4 gusting 9 3.9
2020-Jan-28 05:17 280 5 gusting 12 3.9
2020-Jan-28 05:12 283 5 gusting 12 3.9
2020-Jan-28 05:07 316 5 gusting 11 3.9
2020-Jan-28 05:02 278 4 gusting 8 3.9
2020-Jan-28 04:57 312 3 gusting 6 3.9
2020-Jan-28 04:52 298 3 gusting 6 3.9
2020-Jan-28 04:47 267 4 gusting 6 4.4
2020-Jan-28 04:42 295 4 gusting 6 4.4
2020-Jan-28 04:37 292 4 gusting 8 4.4
2020-Jan-28 04:32 295 5 gusting 8 4.4
2020-Jan-28 04:27 275 5 gusting 8 4.4
2020-Jan-28 04:22 306 4 gusting 7 4.4
2020-Jan-28 04:17 281 3 gusting 6 4.4
2020-Jan-28 04:12 271 4 gusting 6 4.4
2020-Jan-28 04:07 290 4 gusting 6 4.4
2020-Jan-28 04:02 303 4 gusting 6 4.4
2020-Jan-28 03:57 200 3 gusting 6 4.4
2020-Jan-28 03:52 297 3 gusting 6 4.4
2020-Jan-28 03:47 288 3 gusting 7 4.4
2020-Jan-28 03:42 271 3 gusting 7 4.4
2020-Jan-28 03:37 300 3 gusting 7 4.4
2020-Jan-28 03:32 302 3 gusting 7 4.4
2020-Jan-28 03:27 285 3 gusting 7 4.4
2020-Jan-28 03:22 282 4 gusting 10 5.0
2020-Jan-28 03:17 321 3 gusting 10 5.0
2020-Jan-28 03:12 295 3 gusting 7 5.0
2020-Jan-28 03:07 309 3 gusting 7 5.0
2020-Jan-28 03:02 321 2 gusting 6 5.0
2020-Jan-28 02:57 285 2 gusting 8 5.0
2020-Jan-28 02:52 302 3 gusting 8 5.0
2020-Jan-28 02:47 267 2 gusting 6 5.6
2020-Jan-28 02:42 270 1 gusting 3 5.6
2020-Jan-28 02:37 319 0 gusting 2 5.6
2020-Jan-28 02:32 302 0 gusting 2 5.6
2020-Jan-28 02:27 284 0 gusting 1 5.6
2020-Jan-28 02:22 284 0 gusting 3 5.6
2020-Jan-28 02:17 304 0 gusting 3 5.6
2020-Jan-28 02:12 293 5.6
2020-Jan-28 02:06 314 5.6
2020-Jan-28 02:02 324 5.6
2020-Jan-28 01:56 313 0 gusting 2 5.6
2020-Jan-28 01:51 312 0 gusting 2 5.6
2020-Jan-28 01:46 290 0 gusting 2 5.6
2020-Jan-28 01:41 297 0 gusting 3 5.6
2020-Jan-28 01:36 290 1 gusting 3 5.6
2020-Jan-28 01:31 305 1 gusting 3 5.6
2020-Jan-28 01:26 294 1 gusting 3 5.6
2020-Jan-28 01:21 274 1 gusting 4 5.6
2020-Jan-28 01:16 295 2 gusting 4 5.6
2020-Jan-28 01:11 300 2 gusting 4 5.6
2020-Jan-28 01:06 312 1 gusting 4 5.6
2020-Jan-28 01:01 267 1 gusting 3 5.6
2020-Jan-28 00:56 278 1 gusting 3 5.6
2020-Jan-28 00:51 295 1 gusting 3 5.6
2020-Jan-28 00:46 289 1 gusting 4 5.6
2020-Jan-28 00:41 279 1 gusting 4 5.6
2020-Jan-28 00:36 294 1 gusting 3 6.1
2020-Jan-28 00:31 283 2 gusting 5 6.1
2020-Jan-28 00:26 278 2 gusting 5 6.1
2020-Jan-28 00:21 280 2 gusting 6 6.1
2020-Jan-28 00:16 308 2 gusting 6 6.1
2020-Jan-28 00:11 290 2 gusting 5 6.1
2020-Jan-28 00:06 278 3 gusting 6 6.1
2020-Jan-28 00:01 275 3 gusting 7 6.1
2020-Jan-27 23:56 286 2 gusting 7 6.1
2020-Jan-27 23:51 284 3 gusting 6 6.1
2020-Jan-27 23:46 250 2 gusting 6 6.1
2020-Jan-27 23:41 287 1 gusting 3 6.1
2020-Jan-27 23:36 281 1 gusting 3 6.1
2020-Jan-27 23:31 293 1 gusting 4 6.1
2020-Jan-27 23:26 291 2 gusting 5 6.1
2020-Jan-27 23:21 273 2 gusting 5 6.1
2020-Jan-27 23:16 285 2 gusting 6 6.1
2020-Jan-27 23:11 285 2 gusting 6 6.1
2020-Jan-27 23:06 295 1 gusting 5 6.1
2020-Jan-27 23:01 289 1 gusting 5 6.1
2020-Jan-27 22:56 274 2 gusting 4 6.1
2020-Jan-27 22:51 300 3 gusting 6 6.1
2020-Jan-27 22:46 302 2 gusting 6 6.1
2020-Jan-27 22:41 285 2 gusting 6 6.1
2020-Jan-27 22:36 333 3 gusting 7 6.1
2020-Jan-27 22:31 293 3 gusting 8 6.1
2020-Jan-27 22:26 256 3 gusting 8 6.1
2020-Jan-27 22:21 291 3 gusting 8 6.1
2020-Jan-27 22:16 310 2 gusting 6 6.1
2020-Jan-27 22:11 315 2 gusting 6 6.1
2020-Jan-27 22:06 343 3 gusting 7 6.7
2020-Jan-27 22:01 315 5 gusting 12 6.7
2020-Jan-27 21:56 293 6 gusting 15 6.7
2020-Jan-27 21:51 288 6 gusting 15 6.7
2020-Jan-27 21:46 304 5 gusting 10 6.7
2020-Jan-27 21:41 299 5 gusting 10 6.7
2020-Jan-27 21:36 290 4 gusting 8 6.7
2020-Jan-27 21:31 303 4 gusting 8 6.7
2020-Jan-27 21:26 319 4 gusting 8 6.7
2020-Jan-27 21:21 278 5 gusting 10 6.7
2020-Jan-27 21:16 302 6 gusting 11 6.7
2020-Jan-27 21:11 263 5 gusting 11 6.7
2020-Jan-27 21:05 286 3 gusting 8 7.2
2020-Jan-27 21:00 290 3 gusting 6 7.2
2020-Jan-27 20:55 278 4 gusting 9 6.7
2020-Jan-27 20:50 278 4 gusting 9 6.7
2020-Jan-27 20:45 278 5 gusting 9 7.2
2020-Jan-27 20:40 279 5 gusting 9 7.2
2020-Jan-27 20:35 277 4 gusting 9 6.7
2020-Jan-27 20:30 274 5 gusting 12 6.7
2020-Jan-27 20:25 288 5 gusting 12 6.7
2020-Jan-27 20:20 276 4 gusting 12 7.2
2020-Jan-27 20:15 266 3 gusting 9 7.2
2020-Jan-27 20:10 283 4 gusting 10 7.2
2020-Jan-27 20:05 274 6 gusting 10 6.7
2020-Jan-27 20:00 231 6 gusting 9 6.7
2020-Jan-27 19:55 262 5 gusting 9 6.7
2020-Jan-27 19:50 284 4 gusting 8 6.7
2020-Jan-27 19:45 296 4 gusting 8 6.7
2020-Jan-27 19:40 266 5 gusting 10 6.7
2020-Jan-27 19:35 295 6 gusting 12 6.7
2020-Jan-27 19:30 255 5 gusting 12 6.7
2020-Jan-27 19:25 264 4 gusting 9 6.7
2020-Jan-27 19:20 295 2 gusting 6 6.7
2020-Jan-27 19:15 255 3 gusting 6 6.7
2020-Jan-27 19:10 281 4 gusting 7 6.7
2020-Jan-27 19:05 289 3 gusting 7 6.7
2020-Jan-27 19:00 244 2 gusting 5 6.1
2020-Jan-27 18:55 268 1 gusting 5 6.1
2020-Jan-27 18:50 275 1 gusting 4 6.1
2020-Jan-27 18:45 214 1 gusting 6 6.1
2020-Jan-27 18:40 265 2 gusting 7 6.1
2020-Jan-27 18:35 233 2 gusting 7 6.1
2020-Jan-27 18:30 243 2 gusting 7 6.1
2020-Jan-27 18:25 215 2 gusting 7 5.6
2020-Jan-27 18:20 231 2 gusting 8 5.6
2020-Jan-27 18:15 193 3 gusting 8 5.6
2020-Jan-27 18:10 207 3 gusting 8 5.6
2020-Jan-27 18:05 271 3 gusting 8 5.6
2020-Jan-27 18:00 209 3 gusting 6 5.6
2020-Jan-27 17:56 205 2 gusting 7 5.6
2020-Jan-27 17:50 228 4 gusting 10 5.6
2020-Jan-27 17:45 225 4 gusting 10 5.6
2020-Jan-27 17:40 162 4 gusting 10 5.6
2020-Jan-27 17:35 191 4 gusting 10 5.6
2020-Jan-27 17:30 227 3 gusting 10 5.6
2020-Jan-27 17:25 244 3 gusting 7 5.6
2020-Jan-27 17:20 231 3 gusting 11 5.6
2020-Jan-27 17:15 176 3 gusting 11 5.6
2020-Jan-27 17:10 241 2 gusting 7 5.6
2020-Jan-27 17:05 193 4 gusting 10 5.6
2020-Jan-27 17:00 221 4 gusting 10 5.6
2020-Jan-27 16:55 208 3 gusting 8 5.6
2020-Jan-27 16:50 203 2 gusting 7 5.6
2020-Jan-27 16:45 197 2 gusting 7 5.6
2020-Jan-27 16:40 288 3 gusting 7 5.6
2020-Jan-27 16:35 212 2 gusting 6 5.6
2020-Jan-27 16:30 267 2 gusting 6 5.6
2020-Jan-27 16:25 250 2 gusting 7 5.6
2020-Jan-27 16:20 256 2 gusting 7 5.6
2020-Jan-27 16:15 290 2 gusting 6 5.6
2020-Jan-27 16:10 188 3 gusting 10 5.0
2020-Jan-27 16:05 241 2 gusting 10 5.6
2020-Jan-27 16:00 212 2 gusting 6 5.6
2020-Jan-27 15:55 200 3 gusting 9 5.6
2020-Jan-27 15:50 231 3 gusting 9 5.0
2020-Jan-27 15:45 234 3 gusting 6 5.6
2020-Jan-27 15:40 268 3 gusting 6 5.0
2020-Jan-27 15:35 266 3 gusting 6 5.0
2020-Jan-27 15:30 221 3 gusting 6 5.0
2020-Jan-27 15:25 238 2 gusting 6 5.0
2020-Jan-27 15:20 227 2 gusting 7 4.4
2020-Jan-27 15:15 245 2 gusting 7 4.4
2020-Jan-27 15:10 237 2 gusting 7 4.4
2020-Jan-27 15:05 248 1 gusting 6 4.4
2020-Jan-27 15:00 241 2 gusting 6 4.4
2020-Jan-27 14:55 210 2 gusting 6 4.4
2020-Jan-27 14:50 264 2 gusting 6 4.4
2020-Jan-27 14:45 231 1 gusting 6 3.9
2020-Jan-27 14:40 233 1 gusting 5 3.9
2020-Jan-27 14:35 243 2 gusting 6 3.9
2020-Jan-27 14:30 231 3 gusting 7 3.9
2020-Jan-27 14:20 218 3 gusting 6 3.3
2020-Jan-27 14:15 194 3 gusting 8 3.3
2020-Jan-27 14:10 200 3 gusting 8 3.3
2020-Jan-27 14:05 231 2 gusting 6 3.3
2020-Jan-27 14:00 267 2 gusting 7 3.3
2020-Jan-27 13:55 235 3 gusting 7 3.3
2020-Jan-27 13:50 204 3 gusting 6 3.3
2020-Jan-27 13:44 154 3 gusting 6 3.3
2020-Jan-27 13:40 197 2 gusting 6 3.3
2020-Jan-27 13:34 217 2 gusting 7 3.3
2020-Jan-27 13:29 214 2 gusting 7 2.8
2020-Jan-27 13:24 199 2 gusting 7 2.8
2020-Jan-27 13:19 200 1 gusting 6 2.8
2020-Jan-27 13:14
2020-Jan-27 13:09
2020-Jan-27 13:04
2020-Jan-27 12:58
2020-Jan-27 12:53
2020-Jan-27 12:48
2020-Jan-27 12:42
2020-Jan-27 12:37
2020-Jan-27 12:31
2020-Jan-27 12:26
2020-Jan-27 12:21
2020-Jan-27 12:15
2020-Jan-27 12:10
2020-Jan-27 12:04
2020-Jan-27 11:59
2020-Jan-27 11:54
2020-Jan-27 11:48
2020-Jan-27 11:42
2020-Jan-27 11:37
2020-Jan-27 11:32
2020-Jan-27 11:26
2020-Jan-27 11:21
2020-Jan-27 11:15
2020-Jan-27 11:10
2020-Jan-27 11:05
2020-Jan-27 11:00
2020-Jan-27 10:55
2020-Jan-27 10:49
2020-Jan-27 10:44
2020-Jan-27 10:38
2020-Jan-27 10:33
2020-Jan-27 10:27
2020-Jan-27 10:22
2020-Jan-27 10:17
2020-Jan-27 10:11
2020-Jan-27 10:06
2020-Jan-27 10:00
2020-Jan-27 09:55
2020-Jan-27 09:49
2020-Jan-27 09:44
2020-Jan-27 09:38
2020-Jan-27 09:33
2020-Jan-27 09:28
2020-Jan-27 09:23
2020-Jan-27 09:17
2020-Jan-27 09:11
2020-Jan-27 09:06
2020-Jan-27 09:01
2020-Jan-27 08:56
2020-Jan-27 08:51
2020-Jan-27 08:45
2020-Jan-27 08:40
2020-Jan-27 08:35
2020-Jan-27 08:30 2.8
2020-Jan-27 08:25 257 1 gusting 1 2.8
2020-Jan-27 08:19 257 1 gusting 5 2.8
2020-Jan-27 08:14 257 2 gusting 9 2.8
2020-Jan-27 08:09 262 2 gusting 6 2.8
2020-Jan-27 08:04 210 1 gusting 6 2.8
2020-Jan-27 07:59 217 2 gusting 6 2.8
2020-Jan-27 07:54 241 1 gusting 6 2.8
2020-Jan-27 07:49 258 1 gusting 6 2.8
2020-Jan-27 07:44 272 2 gusting 6 2.8
2020-Jan-27 07:39 217 2 gusting 6 2.8
2020-Jan-27 07:34 232 2 gusting 6 3.3
2020-Jan-27 07:29 222 1 gusting 6 3.3
2020-Jan-27 07:24 246 2 gusting 6 2.8
2020-Jan-27 07:19 236 1 gusting 6 2.8
2020-Jan-27 07:14 266 1 gusting 6 2.8
2020-Jan-27 07:09 264 1 gusting 6 2.8
2020-Jan-27 07:04 137 1 gusting 6 2.8
2020-Jan-27 06:59 270 1 gusting 5 2.8
2020-Jan-27 06:49 201 2 gusting 6 2.8
2020-Jan-27 06:44 212 2 gusting 7 2.8
2020-Jan-27 06:39 230 1 gusting 7 2.8
2020-Jan-27 06:34 206 0 gusting 4 2.8
2020-Jan-27 06:28 247 0 gusting 4 2.8
2020-Jan-27 06:24 241 1 gusting 6 2.8
2020-Jan-27 06:18 250 1 gusting 6 2.8
2020-Jan-27 06:13 245 2 gusting 6 2.8
2020-Jan-27 06:08 232 2 gusting 6 2.8
2020-Jan-27 06:03 243 1 gusting 5 2.8
2020-Jan-27 05:58 233 1 gusting 5 2.8
2020-Jan-27 05:53 270 0 gusting 5 2.8
2020-Jan-27 05:48 248 0 gusting 3 2.8
2020-Jan-27 05:43 201 0 gusting 5 2.8
2020-Jan-27 05:38 252 1 gusting 6 2.8
2020-Jan-27 05:33 223 1 gusting 6 3.3
2020-Jan-27 05:28 203 0 gusting 2 3.3
2020-Jan-27 05:23 274 0 gusting 5 3.3
2020-Jan-27 05:18 262 0 gusting 5 3.3
2020-Jan-27 05:13 265 0 gusting 4 3.3
2020-Jan-27 05:08 276 0 gusting 4 3.3
2020-Jan-27 05:03 279 0 gusting 3 3.3
2020-Jan-27 04:58 258 1 gusting 4 3.3
2020-Jan-27 04:53 271 1 gusting 4 3.3
2020-Jan-27 04:48 262 1 gusting 6 3.3
2020-Jan-27 04:43 274 1 gusting 6 3.3
2020-Jan-27 04:38 279 0 gusting 3 3.3
2020-Jan-27 04:33 276 0 gusting 3 3.3
2020-Jan-27 04:28 265 0 gusting 3 3.3
2020-Jan-27 04:23 233 0 gusting 3 3.3
2020-Jan-27 04:18 239 0 gusting 2 3.3
2020-Jan-27 04:13 268 0 gusting 4 3.3
2020-Jan-27 04:08 259 0 gusting 4 3.3
2020-Jan-27 04:03 268 0 gusting 4 3.3
2020-Jan-27 03:58 271 1 gusting 7 3.3
2020-Jan-27 03:53 255 1 gusting 7 3.3
2020-Jan-27 03:48 266 1 gusting 5 3.3
2020-Jan-27 03:43 200 1 gusting 5 3.3
2020-Jan-27 03:38 222 0 gusting 5 3.3
2020-Jan-27 03:33 213 0 gusting 5 3.3
2020-Jan-27 03:28 268 1 gusting 5 3.3
2020-Jan-27 03:23 263 1 gusting 5 3.3
2020-Jan-27 03:18 224 1 gusting 5 3.3
2020-Jan-27 03:13 236 1 gusting 6 3.3
2020-Jan-27 03:08 278 1 gusting 6 3.3
2020-Jan-27 03:03 207 1 gusting 5 3.3
2020-Jan-27 02:58 219 1 gusting 5 3.3
2020-Jan-27 02:53 213 0 gusting 5 3.3
2020-Jan-27 02:48 235 1 gusting 5 3.3
2020-Jan-27 02:43 248 1 gusting 5 3.3
2020-Jan-27 02:38 220 1 gusting 5 3.9
2020-Jan-27 02:33 214 1 gusting 4 3.9
2020-Jan-27 02:28 226 0 gusting 4 3.9
2020-Jan-27 02:23 226 0 gusting 5 3.9
2020-Jan-27 02:18 238 1 gusting 6 3.9
2020-Jan-27 02:13 226 1 gusting 6 3.9
2020-Jan-27 02:08 119 1 gusting 5 3.9
2020-Jan-27 02:03 225 1 gusting 6 3.9
2020-Jan-27 01:58 205 1 gusting 6 3.9
2020-Jan-27 01:53 210 1 gusting 6 3.9
2020-Jan-27 01:48 233 0 gusting 5 3.9
2020-Jan-27 01:43 213 0 gusting 3 3.9
2020-Jan-27 01:38 269 0 gusting 4 4.4
2020-Jan-27 01:33 269 0 gusting 4 4.4
2020-Jan-27 01:28 237 0 gusting 5 4.4
2020-Jan-27 01:23 248 1 gusting 5 4.4
2020-Jan-27 01:18 211 1 gusting 4 4.4
2020-Jan-27 01:13 254 1 gusting 4 4.4
2020-Jan-27 01:08 260 1 gusting 8 4.4
2020-Jan-27 01:03 229 1 gusting 8 4.4
2020-Jan-27 00:58 266 1 gusting 6 4.4
2020-Jan-27 00:53 271 1 gusting 6 5.0
2020-Jan-27 00:47 252 1 gusting 4 5.0
2020-Jan-27 00:42 238 1 gusting 5 5.0
2020-Jan-27 00:37 228 2 gusting 6 5.0
2020-Jan-27 00:32 262 2 gusting 6 5.0
2020-Jan-27 00:27 231 2 gusting 6 5.0
2020-Jan-27 00:22 264 1 gusting 5 5.6
2020-Jan-27 00:17 264 1 gusting 5 5.6
2020-Jan-27 00:12 248 1 gusting 5 5.6
2020-Jan-27 00:08 268 2 gusting 10 5.6
2020-Jan-27 00:02 264 2 gusting 10 5.6
2020-Jan-26 23:57 265 2 gusting 8 5.6
2020-Jan-26 23:52 257 2 gusting 8 5.6
2020-Jan-26 23:47 268 0 gusting 5 5.6
2020-Jan-26 23:43 240 0 gusting 5 5.6
2020-Jan-26 23:37 265 1 gusting 5 6.1
2020-Jan-26 23:32 242 1 gusting 5 6.1
2020-Jan-26 23:27 282 1 gusting 7 6.1
2020-Jan-26 23:23 272 2 gusting 7 6.1
2020-Jan-26 23:17 259 1 gusting 4 6.1
2020-Jan-26 23:12 261 2 gusting 5 6.1
2020-Jan-26 23:08 259 2 gusting 5 6.1
2020-Jan-26 23:02 243 2 gusting 7 6.7
2020-Jan-26 22:57 244 2 gusting 7 6.7
2020-Jan-26 22:52 267 2 gusting 5 6.7
2020-Jan-26 22:47 252 1 gusting 5 6.7
2020-Jan-26 22:42 257 1 gusting 5 6.7
2020-Jan-26 22:37 274 2 gusting 5 6.7
2020-Jan-26 22:32 259 3 gusting 6 6.7
2020-Jan-26 22:27 238 3 gusting 6 6.7
2020-Jan-26 22:22 284 3 gusting 6 6.7
2020-Jan-26 22:17 264 3 gusting 7 6.7
2020-Jan-26 22:12 288 4 gusting 11 6.7
2020-Jan-26 22:07 271 4 gusting 11 6.7
2020-Jan-26 22:02 287 4 gusting 7 6.7